FALCON 9 DEB (46732 NORAD) Tracking and Keplerian Element Data

This shows tracking and keplerian element data for the satellite.

Feedback or suggestion? Click here.




ElementValue
Catalog46732
NameFALCON 9 DEB
Epoch Orbit431
Epoch Day319.22874803
Epoch Year2020
RAAN330.4788
Inclination53.0304
Eccentricity0.0001004
Argument of Perigee21.9214
Mean Anonmoly338.1877
Mean Motion16.44200797
Decay Rate0.08151186
L11 46732U 20073BQ 20319.22874803 .08151186 12494-4 32117-3 0 9994
L22 46732 53.0304 330.4788 0001004 21.9214 338.1877 16.44200797 4311

Live tracking and technical data element details for FALCON 9 DEB (NORAD 46732). FALCON 9 DEB can be tracked NOW for your location showing map with azimuth and elevation plus other details from your city location.

Track the satellite on the map from your city or location and see movement details for azimuth, elevation, latitude, longitude, range, height, and movement on the map or in text.







IsCatalogInMostPopularTable: catalog: 46732, numindb: 8
Update: records affected: 1



GetName: 46732 FALCON 9 DEB

Hit Count: updated at: Tue, 24 Nov 2020 12:46:07 GMT